Find Starlink 11392

NORAD ID: 63056 Int'l Des: 2025-035 Owner: SPXS Country: US Constellation: starlink operational
LEOCIRCULAR

Current View

Loading 3D Globe...

About Starlink 11392

Starlink 11392 (NORAD 63056) is a starlink constellation satellite (v2 mini d2c) launched Feb 21, 2025 by SPXS of US. It operates in LEO, CIRCULAR orbit with a mass of 960.00 kg.

About Starlink 11392

Description loading...

Upcoming Passes

Passes for default location (London). Set your location on the main map for personalized predictions.

Altitude History

Loading altitude history...

Two-Line Element Set

1 63056U 25035E 26166.00004630 .00006020 00000-0 50402-4 0 9992
2 63056 43.0003 148.9455 0001385 259.6352 95.3907 15.70825301 6019
Epoch: Jun 15, 2026 • Age: 22 hours

Current Status

Altitude 356.2 km
Velocity 7.70 km/s
Sub-Earth Point 18.53°N, 62.24°W
Launch Date Feb 21, 2025
Age 1.3 years
Type internet

Technical Details

Classification Payload
Mass 960.00 kg
Dry Mass 910.00 kg
Total Mass 960.00 kg
Length 0.30 m
Diameter 4.10 m
Span 29.00 m
Shape Box + pan
Manufacturer SPXS
Bus Type Starlink V2MD
Phase Status In Orbit
Owner/State SPXS/US

Most Searched